[[[{"header":{"parameterUnit":"kt","parameterCategory":2,"dx":1,"dy":1,"la1":30.253999710083008,"la2":30.299108505249023,"lo1":-89.0895004272461,"lo2":-89.04439544677734,"nx":28,"ny":28,"refTime":"2022-10-04T21:00:00:Z","depth":0,"parameterNumber":1,"parameterNumberName":"U-component_of_WINDS"},"data":[-3.3345,-3.3408,-3.3392,-3.3456,-3.3452,-3.3493,-3.3503,-3.3514,-3.3519,-3.3567,-3.3592,-3.3582,-3.3581,-3.3608,-3.3634,-3.363,-3.3643,-3.3677,-3.3666,-3.3525,-3.3504,-3.3484,-3.3468,-3.368,-3.368,-3.3815,-3.3816,-3.3817,-3.3246,-3.3243,-3.3272,-3.3289,-3.3314,-3.3271,-3.3281,-3.3305,-3.3343,-3.3349,-3.3372,-3.3413,-3.3443,-3.3429,-3.3456,-3.3486,-3.3468,-3.3495,-3.3493,-3.3494,-3.3342,-3.3325,-3.351,-3.351,-3.3509,-3.3509,-3.3509,-3.3509,-3.3062,-3.31,-3.31,-3.313,-3.3134,-3.3146,-3.3179,-3.3165,-3.3193,-3.3218,-3.3192,-3.3235,-3.3238,-3.3261,-3.3265,-3.3299,-3.3266,-3.329,-3.3297,-3.3304,-3.3315,-3.3125,-3.3302,-3.3302,-3.3301,-3.3301,-3.33,0,-3.2922,-3.2905,-3.2931,-3.2952,-3.2973,-3.2988,-3.2999,-3.3019,-3.2977,-3.3002,-3.3037,-3.3054,-3.3088,-3.312,-3.314,-3.3139,-3.3097,-3.309,-3.3107,-3.3121,-3.3132,-3.3128,-3.2883,-3.3085,-3.3083,-3.3082,-3.3081,-3.308,-3.2736,-3.2781,-3.2772,-3.2792,-3.2793,-3.2826,-3.2843,-3.2802,-3.2822,-3.2829,-3.2864,-3.2894,-3.2916,-3.2975,-3.2958,-3.2984,-3.2964,-3.3044,-3.2968,-3.298,-3.2967,-3.2965,-3.2971,-3.306,-3.3062,-3.3064,-3.3066,0,-3.2633,-3.2604,-3.2668,-3.2653,-3.2651,-3.2701,-3.2689,-3.2725,-3.2707,-3.2754,-3.2762,-3.2734,-3.2769,-3.2739,-3.2772,-3.2755,-3.284,-3.2819,-3.2839,-3.2834,-3.2903,-3.2898,-3.313,-3.3158,-3.2937,-3.2939,-3.2941,0,-3.2463,-3.2523,-3.2476,-3.2515,-3.2582,-3.2538,-3.2605,-3.2596,-3.2595,-3.2632,-3.2578,-3.2614,-3.2568,-3.26,-3.2576,-3.2639,-3.2644,-3.2636,-3.2629,-3.2641,-3.2643,-3.2652,-3.2642,-3.2609,-3.2608,-3.2607,-3.2606,0,-3.2305,-3.235,-3.2412,-3.2418,-3.2408,-3.2439,-3.2436,-3.2434,-3.2451,-3.2467,-3.2477,-3.2499,-3.2512,-3.253,-3.2498,-3.2448,-3.2574,-3.2498,-3.2565,-3.2567,-3.2595,-3.2594,-3.2806,-3.2604,-3.2604,-3.2604,-3.2603,0,-3.2163,-3.2179,-3.2273,-3.2264,-3.2277,-3.2318,-3.2336,-3.2364,-3.2366,-3.2353,-3.2365,-3.2325,-3.2376,-3.2304,-3.2374,-3.2318,-3.2334,-3.233,-3.2334,-3.2337,-3.2257,-3.2383,-3.2587,-3.2608,-3.234,-3.2338,-3.2336,0,-3.1991,-3.2078,-3.204,-3.2131,-3.2166,-3.2103,-3.2148,-3.2151,-3.2136,-3.2164,-3.2148,-3.2181,-3.212,-3.2126,-3.2165,-3.215,-3.2223,-3.2139,-3.2183,-3.2185,-3.2186,-3.2373,-3.2411,-3.2545,-3.2308,-3.2311,-3.2313,0,-3.1854,-3.184,-3.1858,-3.1863,-3.1858,-3.1887,-3.1939,-3.1961,-3.1982,-3.199,-3.2033,-3.2078,-3.2034,-3.2044,-3.2013,-3.2056,-3.2172,-3.2003,-3.2002,-3.2036,-3.229,-3.2327,-3.2349,-3.2142,-3.2146,-3.2148,-3.229,0,-3.1648,-3.1687,-3.1735,-3.1745,-3.1762,-3.1816,-3.1781,-3.1804,-3.1772,-3.1754,-3.1816,-3.1809,-3.1832,-3.1848,-3.1818,-3.1923,-3.1901,-3.1853,-3.1781,-3.1903,-3.195,-3.1968,-3.1716,-3.1713,-3.1711,-3.171,0,0,-3.1492,-3.1546,-3.1501,-3.1548,-3.156,-3.1492,-3.1553,-3.1556,-3.1565,-3.1575,-3.1534,-3.1596,-3.1593,-3.1671,-3.1706,-3.1715,-3.1732,-3.1689,-3.1845,-3.186,-3.1874,-3.1924,-3.1944,-3.1706,-3.1705,-3.1705,-3.1704,0,-3.1409,-3.1405,-3.1465,-3.1466,-3.1466,-3.1444,-3.1459,-3.1446,-3.1438,-3.1496,-3.144,-3.1472,-3.1522,-3.1526,-3.1535,-3.1679,-3.1635,-3.1688,-3.1778,-3.1826,-3.1844,-3.186,-3.1913,-3.1932,-3.1699,-3.1699,-3.17,0,-3.1268,-3.1259,-3.1284,-3.1305,-3.1304,-3.1342,-3.1257,-3.1299,-3.1327,-3.125,-3.1309,-3.1301,-3.1303,-3.138,-3.1414,-3.1378,-3.1549,-3.1488,-3.1499,-3.1502,-3.1547,-3.1569,-3.1588,-3.1336,-3.1334,-3.1333,0,0,-3.1202,-3.1236,-3.1212,-3.1284,-3.1288,-3.1255,-3.1271,-3.124,-3.1242,-3.1243,-3.1231,-3.1236,-3.1264,-3.1284,-3.1309,-3.1399,-3.1397,-3.1444,-3.1461,-3.1476,-3.1487,-3.1535,-3.1557,-3.1329,-3.1329,-3.1329,0,0,-3.117,-3.1144,-3.1111,-3.119,-3.1194,-3.1175,-3.1221,-3.1181,-3.1199,-3.1188,-3.1139,-3.1138,-3.121,-3.1204,-3.1151,-3.1283,-3.1211,-3.1223,-3.1284,-3.1305,-3.1322,-3.1322,-3.1063,0,0,0,0,0,-3.1066,-3.1147,-3.1118,-3.1125,-3.1152,-3.1192,-3.1195,-3.1156,-3.1106,-3.1144,-3.1127,-3.1077,-3.1165,-3.1118,-3.1127,-3.1186,-3.1275,-3.1284,-3.1293,-3.1393,-3.1416,-3.1435,0,0,0,0,0,0,-3.1068,-3.1078,-3.1115,-3.1101,-3.1106,-3.1189,-3.1096,-3.1088,-3.1101,-3.1091,-3.1082,-3.1077,-3.1045,-3.111,-3.1119,-3.1176,-3.106,-3.1278,-3.1287,-3.1294,-3.1401,-3.1419,-3.1435,0,0,0,0,0,-3.107,-3.1078,-3.1131,-3.1099,-3.1104,-3.1071,-3.1093,-3.1085,-3.1095,-3.1068,-3.1062,-3.1064,-3.1047,-3.1052,-3.1115,-3.1173,-3.1054,-3.1057,-3.1284,-3.129,-3.1296,-3.141,0,0,0,0,0,0,-3.1072,-3.1071,-3.1131,-3.1131,-3.1065,-3.1066,-3.1064,-3.1083,-3.107,-3.1065,-3.1047,-3.1039,-3.105,-3.1053,-3.1057,-3.1174,-3.1049,-3.1052,-3.1054,-3.1289,-3.1294,-3.1298,0,0,0,0,0,0,-3.1067,-3.1072,-3.1131,-3.109,-3.1084,-3.1061,-3.106,-3.1107,-3.1071,-3.1049,-3.1042,-3.1043,-3.1045,-3.1055,-3.1057,-3.1134,-3.1045,-3.1048,-3.105,-3.1052,-3.1293,-3.1297,0,0,0,0,0,0,-3.1068,-3.1073,-3.1089,-3.1085,-3.1081,-3.1078,-3.1102,-3.1132,-3.1035,-3.1051,-3.1026,-3.1021,-3.1048,-3.1049,-3.1058,-3.1134,-3.1134,-3.1045,-3.1047,-3.1049,-3.105,0,0,0,0,0,0,0,-3.1069,-3.105,-3.113,-3.1082,-3.1078,-3.1131,-3.1131,-3.1131,-3.1034,-3.103,-3.1027,-3.1023,-3.1026,-3.103,-3.1033,-3.1133,0,0,-3.1045,-3.1046,0,0,0,0,0,0,0,0,-3.1048,-3.105,-3.113,-3.113,-3.1131,-3.1131,-3.1131,-3.1131,-3.1034,-3.1031,-3.1027,-3.1025,-3.1027,-3.103,-3.1033,0,0,0,0,0,0,0,0,0,0,0,0,0,0,0,-3.113,-3.113,0,-3.1131,-3.1131,-3.1131,-3.1033,-3.1031,-3.1028,-3.1026,-3.1028,-3.103,-3.1033,0,0,0,0,0,0,0,0,0,0,0,0,0,0,0,0,0,0,0,0,0,0,0,0,0,0,0,0,0,0,0,0,0,0,0,0,0,0,0,0,0,0,0,0,0,0,0,0,0,0,0,0,0,0,0,0,0,0,0,0,0,0,0,0,0,0,0,0,0]}],[{"header":{"parameterUnit":"kt","parameterCategory":2,"dx":1,"dy":1,"la1":30.253999710083008,"la2":30.299108505249023,"lo1":-89.0895004272461,"lo2":-89.04439544677734,"nx":28,"ny":28,"refTime":"2022-10-04T21:00:00:Z","depth":0,"parameterNumber":2,"parameterNumberName":"V-component_of_WINDS"},"data":[1.452,1.4418,1.4388,1.4255,1.4205,1.4107,1.4061,1.3998,1.3938,1.3814,1.3735,1.3689,1.3612,1.3506,1.3415,1.3395,1.3356,1.3344,1.3321,1.3413,1.3423,1.3432,1.3454,1.3338,1.3338,1.3228,1.3227,1.3226,1.4589,1.454,1.4463,1.4366,1.4297,1.4292,1.4212,1.4153,1.4063,1.399,1.3911,1.3796,1.37,1.3624,1.3523,1.3468,1.3455,1.3443,1.3442,1.3429,1.3528,1.3552,1.3455,1.3455,1.3455,1.3455,1.3455,1.3455,1.4707,1.4648,1.4572,1.4486,1.4429,1.4363,1.4298,1.4246,1.4165,1.4061,1.4037,1.3933,1.3848,1.3708,1.3652,1.3566,1.3572,1.3545,1.3536,1.3529,1.3525,1.368,1.3547,1.3548,1.3548,1.3548,1.3548,0,1.4782,1.476,1.4684,1.4598,1.4533,1.4462,1.439,1.435,1.4287,1.4222,1.4125,1.4062,1.3936,1.3835,1.3733,1.3678,1.3655,1.3651,1.3631,1.3638,1.3659,1.3641,1.3798,1.3653,1.3654,1.3654,1.3654,1.3655,1.4892,1.4829,1.4734,1.4684,1.4637,1.4557,1.4501,1.4451,1.4393,1.4294,1.4241,1.4143,1.4061,1.3904,1.3834,1.3737,1.3723,1.3672,1.3708,1.372,1.3715,1.3717,1.3707,1.3663,1.3662,1.3661,1.366,0,1.4956,1.4907,1.4796,1.4707,1.4682,1.4616,1.4536,1.4472,1.4427,1.4331,1.4305,1.423,1.4132,1.4071,1.3945,1.3915,1.3792,1.3786,1.3821,1.3814,1.3757,1.3761,1.3592,1.3565,1.3692,1.3691,1.3691,0,1.5028,1.4945,1.4873,1.4812,1.4717,1.467,1.4575,1.4526,1.4455,1.4379,1.435,1.4278,1.4212,1.413,1.4085,1.3975,1.3953,1.392,1.3908,1.3919,1.3923,1.3879,1.3882,1.3891,1.3892,1.3893,1.3893,0,1.5129,1.4995,1.4896,1.4856,1.475,1.4704,1.4656,1.4576,1.4521,1.4438,1.44,1.4307,1.4254,1.418,1.4123,1.415,1.3989,1.4014,1.3955,1.3956,1.3917,1.3919,1.3792,1.3894,1.3895,1.3895,1.3895,0,1.5176,1.5101,1.4967,1.4877,1.4843,1.4777,1.4684,1.4614,1.4531,1.45,1.4434,1.4404,1.4308,1.4336,1.4199,1.425,1.4197,1.4159,1.4154,1.4135,1.4166,1.4096,1.3987,1.3969,1.4126,1.4128,1.413,0,1.5302,1.5154,1.5113,1.4985,1.4908,1.4881,1.4805,1.4734,1.4687,1.461,1.4556,1.4467,1.4476,1.4439,1.4381,1.4318,1.4253,1.4326,1.4203,1.42,1.4223,1.4123,1.4119,1.4019,1.4154,1.4151,1.4149,0,1.5393,1.527,1.525,1.5201,1.5103,1.5037,1.4953,1.4857,1.4808,1.4732,1.4654,1.453,1.453,1.4469,1.4433,1.4375,1.4296,1.4381,1.4378,1.4363,1.4162,1.4159,1.4143,1.4284,1.4281,1.4278,1.4168,0,1.5467,1.5387,1.5334,1.523,1.5171,1.5089,1.5029,1.4974,1.4948,1.49,1.4787,1.4709,1.4605,1.4573,1.4545,1.4434,1.4441,1.4441,1.4458,1.4396,1.4357,1.4342,1.4521,1.4521,1.4521,1.4521,0,0,1.5597,1.5482,1.5439,1.5357,1.5303,1.5275,1.5192,1.5136,1.5022,1.4984,1.4995,1.4808,1.4742,1.4609,1.4586,1.4545,1.4517,1.4541,1.4428,1.4417,1.4408,1.4368,1.4353,1.4522,1.4522,1.4522,1.4522,0,1.561,1.5557,1.5478,1.542,1.5332,1.5287,1.5268,1.5174,1.5138,1.503,1.5002,1.4926,1.4778,1.471,1.4657,1.4558,1.4536,1.4532,1.4499,1.4431,1.4421,1.4412,1.4371,1.4358,1.4522,1.4522,1.4522,0,1.5685,1.562,1.5577,1.546,1.5401,1.5321,1.5328,1.5245,1.5183,1.5149,1.504,1.4987,1.4893,1.4778,1.4724,1.4731,1.4557,1.4602,1.4599,1.4589,1.452,1.4508,1.4497,1.4639,1.464,1.464,0,0,1.5704,1.5631,1.5543,1.5458,1.5423,1.5354,1.5306,1.5275,1.5195,1.5163,1.5094,1.5014,1.4926,1.4869,1.4784,1.4668,1.464,1.4619,1.4613,1.4609,1.4597,1.4527,1.4515,1.4643,1.4643,1.4643,0,0,1.5711,1.5607,1.5597,1.5492,1.542,1.5323,1.5271,1.5254,1.5172,1.5173,1.5111,1.5087,1.4979,1.4926,1.4969,1.4787,1.4806,1.4794,1.4824,1.4816,1.4811,1.4823,1.4958,0,0,0,0,0,1.5694,1.5621,1.5613,1.5587,1.5435,1.5329,1.5309,1.526,1.5275,1.5235,1.5174,1.5156,1.4936,1.4973,1.4945,1.4895,1.4677,1.4671,1.4665,1.4676,1.4669,1.4662,0,0,0,0,0,0,1.5683,1.5651,1.5615,1.5516,1.5482,1.5331,1.5346,1.533,1.5278,1.5277,1.5169,1.5153,1.5105,1.4984,1.4959,1.4913,1.4967,1.4674,1.4669,1.4665,1.4673,1.4667,1.4662,0,0,0,0,0,1.5674,1.5648,1.542,1.5517,1.5487,1.5404,1.5348,1.5335,1.5293,1.5199,1.5183,1.5261,1.5105,1.508,1.4969,1.4926,1.4984,1.4974,1.4671,1.4667,1.4663,1.467,0,0,0,0,0,0,1.5667,1.5633,1.5413,1.5402,1.5541,1.5411,1.539,1.534,1.5218,1.5201,1.5288,1.5289,1.5104,1.5085,1.5066,1.4933,1.4998,1.4988,1.4982,1.4668,1.4665,1.4662,0,0,0,0,0,0,1.5647,1.5624,1.5407,1.5441,1.5433,1.5418,1.5399,1.5297,1.5216,1.5313,1.531,1.529,1.513,1.5088,1.5073,1.4915,1.5008,1.4999,1.4993,1.4989,1.4665,1.4663,0,0,0,0,0,0,1.5636,1.5617,1.5444,1.5438,1.5431,1.5301,1.5326,1.5172,1.5252,1.5319,1.5257,1.526,1.5133,1.5117,1.5078,1.4927,1.4918,1.5008,1.5002,1.4997,1.4995,0,0,0,0,0,0,0,1.5628,1.5772,1.548,1.5435,1.5429,1.5298,1.5295,1.5292,1.5253,1.5255,1.5257,1.5259,1.5059,1.5049,1.5039,1.4936,0,0,1.5009,1.5004,0,0,0,0,0,0,0,0,1.5779,1.5774,1.548,1.5478,1.5476,1.5298,1.5295,1.5293,1.5253,1.5255,1.5256,1.5258,1.5056,1.5048,1.504,0,0,0,0,0,0,0,0,0,0,0,0,0,0,0,1.548,1.5478,0,1.5297,1.5295,1.5293,1.5253,1.5255,1.5256,1.5257,1.5054,1.5048,1.5041,0,0,0,0,0,0,0,0,0,0,0,0,0,0,0,0,0,0,0,0,0,0,0,0,0,0,0,0,0,0,0,0,0,0,0,0,0,0,0,0,0,0,0,0,0,0,0,0,0,0,0,0,0,0,0,0,0,0,0,0,0,0,0,0,0,0,0,0,0]}]]]